カタログに戻る

TITAN 3C TRANSTAGE DEB

LostMEO
NORAD 38695·DEBRIS·🇺🇸 United States

打ち上げ Sep 26, 1968 から Cape Canaveral Space Force Station

Loading…

次のパス (今後24時間)

TLE

古いSource: Space-Track

元期: Jan 9, 2026, 17:39 UTC

1 38695U 68081V   26009.73578191 -.00000090  00000-0  00000-0 0  9992
2 38695   1.9319  22.3763 0438520 269.4944 164.5784  0.99391606 61778

AllMySatでTITAN 3C TRANSTAGE DEBをリアルタイム追跡

Download on the App Store